TITAN 3C TRANSTAGE DEB, 43456

Orbit data source: Space-Track

TITAN 3C TRANSTAGE DEB, 43456 is space debris in GEO originally from a launch on Sun, 09 Feb 1969 UTC launched from the Air Force Eastern Test Range (AFETR). Debris objects in space refer to the collection of defunct objects orbiting the Earth. Examples of debris include non-operational satellites, rocket bodies, and fragments generated from explosions, collisions, or faulty payload assembly.

Loading next visibility...
Identifier
43456, 1969-013P
Orbit
GEO
Country
Flag of USUS
Related business
Manufacturer
Martin Marietta
Mission
Spacecraft
Bus & Motor
Unknown
Mass
Unknown
Launch date (UTC)
1969-02-09 (57 years ago)
Launch vehicle
Unknown
Launch site
Air Force Eastern Test Range (AFETR)
Object type
Payload
Rocket body
Debris
Shape & HBR
Unknown shape, 1.1 m
Radar Cross Section
Medium (>0.1 m² and <1 m²)

Expand to show TLE details & history
Last TLE update: 3 days ago

TLE from 3 days ago
0 TITAN 3C TRANSTAGE DEB
1 43456U 69013P   26167.85494503 -.00000066  00000-0  00000-0 0  9994
2 43456   1.9908  51.8414 0990838  40.0924 326.3684  1.02719497  6727
Epoch: 2026-06-16T20:31Z
TLE epoch observation values (Epoch: 2026-06-16T20:31:07.250Z)
Latitude
0.00001°
Longitude
-161.6063°
Altitude
31,813.625 km
Speed
3.357 km/s
True Right ascension
03h 25m 10s
True Declination
0° 00' 00"
Sunlit
Object was in daylight at epoch
Visualization orbit readout
Latitude
Unknown
Longitude
Unknown
Altitude
Unknown
Speed
Unknown
Apparent Right ascension
Unknown
Apparent Declination
Unknown
Sunlit
N/A
Visualization observer readout
Local Sidereal Time
03:12:26
Azimuth
Unknown
Elevation
Unknown
Doppler factor
Unknown
Orbital elements
Apogee altitude
39,226.491 km
Perigee altitude
31,003.86 km
Semi-major axis
41,493.312 km
Eccentricity
0.09908
Inclination
1.9908°
RAAN
51.8414°
Arg. of periapsis
40.0924°
True anomaly
319.37821°
Mean anomaly
326.3684°
Eccentric anomaly
322.94771°
Mean motion
0.25679 °/min
Orbital period
1,401.93 mins
BSTAR
0
Loading maneuver chart data...
Computing Atmospheric mass density...

Documentation

Showing up to 5 results
|